Location: Taaricht
(32.5378°N, 5.4251°W)
Time: 19:49:26
(UTC+00:00)

ARGOS - Pass Details

Date: 09 April 2020
Orbit: 820 x 834 km, 98.5° (Epoch: 27 May)

Event Time Altitude Azimuth Distance (km) Brightness Sun altitude
Exits shadow 19:21:04 - 135° (SE) 2,887 5.4 -7.7°
Reaches altitude 10° 19:22:24 10° 128° (SE) 2,427 5.0 -8.0°
Maximum altitude 19:26:59 29° 70° (ENE) 1,463 4.0 -8.9°
Drops below altitude 10° 19:31:33 10° 11° (NNE) 2,430 5.7 -9.9°
Sets 19:34:10 0° 1° (N) 3,364 6.5 -10.4°
